カタログに戻る

STARLINK-6087

運用中通信VLEO
NORAD 56801·PAYLOAD·🇺🇸 United States

打ち上げ May 31, 2023 から Vandenberg Space Force Base

Loading…

次のパス (今後24時間)

TLE

最新Source: CelesTrak SupGP

元期: Sep 14, 2026, 21:24 UTC

1 56801C 23078AL  26257.89215278 -.00004728  00000+0 -39609-3 0  2573
2 56801  70.0015 207.2843 0003563 265.9625 223.0369 14.98340719    15

AllMySatでSTARLINK-6087をリアルタイム追跡

Download on the App Store